Location: Newark
(41.6500°N, 71.4833°W)
Time: 21:59:12
(UTC+00:00)

A-11 Canister half - Pass Details

Date: 23 January 2020
Orbit: 1517 x 1683 km, 47.2° (Epoch: 19 February)

Event Time Altitude Azimuth Distance (km) Brightness Sun altitude
Rises 11:38:46 0° 297° (WNW) 4,665 - -5.5°
Exits shadow 11:40:38 - 294° (WNW) 4,078 10.5 -5.2°
Reaches altitude 10° 11:41:55 10° 291° (WNW) 3,684 10.3 -5.0°
Maximum altitude 11:50:35 46° 222° (SW) 1,963 9.5 -3.5°
Drops below altitude 10° 11:59:25 10° 153° (SSE) 3,751 12.0 -2.0°
Sets 12:02:41 0° 147° (SSE) 4,756 12.7 -1.4°
